Location: Columbia
(38.9520°N, 92.3340°W)
Time: 00:52:55
(UTC-05:00)

Iridium 15 - Visible Passes

Search period start: 29 July 2016 00:00
Search period end: 08 August 2016 00:00
Orbit: 776 x 779 km, 86.4° (Epoch: 28 July)

Date Brightness Start Highest point End Pass type
(mag) Time Alt. Az. Time Alt. Az. Time Alt. Az.
29 Jul 8.1 01:39:54 10° NNE 01:43:27 18° ENE 01:43:39 18° E visible
29 Jul 6.4 03:19:25 10° NNW 03:24:06 47° WNW 03:24:06 47° WNW visible
30 Jul 6.1 02:45:44 10° N 02:50:25 72° N 02:50:25 72° N visible
31 Jul 6.9 02:12:21 10° N 02:16:44 45° ENE 02:16:44 45° ENE visible
31 Jul 7.7 03:54:15 10° NW 03:57:12 18° WNW 03:57:12 18° WNW visible
01 Aug 7.7 01:39:22 10° NNE 01:43:05 25° ENE 01:43:05 25° ENE visible
01 Aug 7.1 03:19:48 10° NNW 03:23:32 31° WNW 03:23:32 31° WNW visible
02 Aug 8.4 01:07:08 10° NE 01:09:25 14° ENE 01:09:25 14° ENE visible
02 Aug 6.6 02:45:54 10° N 02:49:52 48° NW 02:49:52 48° NW visible
03 Aug 6.8 02:12:19 10° N 02:16:13 49° NNE 02:16:13 49° NNE visible
03 Aug 8.2 03:55:36 10° NW 03:56:41 12° WNW 03:56:41 12° WNW visible
04 Aug 7.5 01:39:05 10° NNE 01:42:35 32° NE 01:42:35 32° NE visible
04 Aug 7.7 03:20:22 10° NNW 03:23:02 21° WNW 03:23:02 21° WNW visible
05 Aug 8.1 01:06:19 10° NNE 01:08:57 19° ENE 01:08:57 19° ENE visible
05 Aug 7.3 02:46:10 10° NNW 02:49:25 32° NW 02:49:25 32° NW visible
06 Aug 8.6 00:35:00 10° ENE 00:35:20 10° ENE 00:35:20 10° ENE visible
06 Aug 7.1 02:12:24 10° N 02:15:47 41° N 02:15:47 41° N visible
07 Aug 7.4 01:38:57 10° N 01:42:11 35° NNE 01:42:11 35° NNE visible
07 Aug 8.2 03:21:14 10° NW 03:22:38 14° WNW 03:22:38 14° WNW visible
